Weather History for Big Rapids, MI

Change the Weather History Date:

Thursday, November 3, 2011

  Actual Average Record
Temperature  
Mean Temperature 40 °F -  
Max Temperature 46 °F 49 °F 73 °F (1987)
Min Temperature 35 °F 32 °F 16 °F (1989)
Degree Days  
Heating Degree Days 24    
Moisture  
Dew Point 37 °F    
Average Humidity 84    
Maximum Humidity 100    
Minimum Humidity 57    
Precipitation  
Precipitation 0.00 in - - ()
Sea Level Pressure  
Sea Level Pressure 30.09 in    
Wind  
Wind Speed 7 mph (NNE)    
Max Wind Speed 13 mph    
Max Gust Speed 21 mph    
Visibility 10 miles    
Events Rain    
Averages and records for this station are not official NWS values.
T = Trace of Precipitation, MM = Missing Value Source: NWS Daily Summary

Daily Weather History Graph

Daily Weather History Graph

Search for Another Location

Airport:

Trip Planner

Search our weather history database for the weather conditions in past years. The results will help you decide how hot, cold, wet, or windy it might be!

Date:

Astronomy

Nov. 03, 2011 Rise Set
Actual Time 8:20 AM EDT 6:30 PM EDT
Civil Twilight 7:50 AM EDT 7:00 PM EDT
Nautical Twilight 7:16 AM EDT 7:34 PM EDT
Astronomical Twilight 6:42 AM EDT 8:07 PM EDT
Moon 3:05 PM EDT (11/3) 1:18 AM EDT (11/3)
Length of Visible Light 11h 10m
Length of Day
10h 10m
First Quarter, 60% of the Moon is Illuminated
Nov 3
First Quarter
Nov 10
Full
Nov 18
Last Quarter
Nov 25
New
Dec 2
First Quarter

Hourly Weather History & Observations

Time (EDT) Temp. Windchill Dew Point Humidity Pressure Visibility Wind Dir Wind Speed Gust Speed Precip Events Conditions
12:15 AM 41.0 °F 34.7 °F 41.0 °F 100% 30.03 in 10.0 mi North 10.4 mph 20.7 mph N/A Rain Rain
12:34 AM 41.0 °F 34.7 °F 41.0 °F 100% 30.03 in 10.0 mi North 10.4 mph - N/A Rain Light Rain
12:55 AM 41.0 °F 36.4 °F 39.2 °F 93% 30.04 in 10.0 mi NNE 6.9 mph - N/A   Overcast
1:15 AM 41.0 °F 35.8 °F 39.2 °F 93% 30.05 in 10.0 mi North 8.1 mph - N/A Rain Light Rain
1:34 AM 41.0 °F 35.8 °F 39.2 °F 93% 30.04 in 10.0 mi NNE 8.1 mph - N/A Rain Light Rain
1:55 AM 41.0 °F 36.4 °F 39.2 °F 93% 30.04 in 10.0 mi NNE 6.9 mph - N/A   Overcast
2:15 AM 41.0 °F 35.8 °F 39.2 °F 93% 30.05 in 10.0 mi NNE 8.1 mph - N/A   Overcast
2:34 AM 41.0 °F 36.4 °F 39.2 °F 93% 30.05 in 10.0 mi NNE 6.9 mph - N/A Rain Light Rain
2:55 AM 41.0 °F 37.1 °F 39.2 °F 93% 30.06 in 10.0 mi North 5.8 mph - N/A Rain Light Rain
3:15 AM 41.0 °F 36.4 °F 39.2 °F 93% 30.07 in 5.0 mi NNE 6.9 mph - N/A   Unknown
3:34 AM 39.2 °F 37.0 °F 39.2 °F 100% 30.07 in 7.0 mi NNE 3.5 mph - N/A   Overcast
3:55 AM 39.2 °F - 39.2 °F 100% 30.06 in 5.0 mi Calm Calm - N/A   Overcast
4:15 AM 39.2 °F 35.0 °F 39.2 °F 100% 30.06 in 10.0 mi NNE 5.8 mph - N/A Rain Light Rain
4:34 AM 39.2 °F 35.0 °F 39.2 °F 100% 30.06 in 10.0 mi NNE 5.8 mph - N/A Rain Light Rain
5:34 AM 39.2 °F 35.9 °F 39.2 °F 100% 30.06 in 10.0 mi NNE 4.6 mph - N/A   Overcast
5:55 AM 39.2 °F 35.9 °F 39.2 °F 100% 30.06 in 10.0 mi NNE 4.6 mph - N/A   Overcast
6:15 AM 39.2 °F - 39.2 °F 100% 30.08 in 10.0 mi Calm Calm - N/A   Overcast
6:34 AM 39.2 °F 35.9 °F 39.2 °F 100% 30.07 in 10.0 mi NNE 4.6 mph - N/A   Overcast
6:55 AM 39.2 °F 37.0 °F 39.2 °F 100% 30.07 in 10.0 mi NNE 3.5 mph - N/A   Overcast
7:15 AM 39.2 °F 37.0 °F 39.2 °F 100% 30.07 in 10.0 mi NNE 3.5 mph - N/A Rain Light Rain
7:34 AM 41.0 °F 36.4 °F 39.2 °F 93% 30.07 in 10.0 mi NNE 6.9 mph - N/A   Overcast
7:55 AM 41.0 °F 37.1 °F 39.2 °F 93% 30.08 in 10.0 mi NNE 5.8 mph - N/A   Overcast
8:14 AM 41.0 °F 37.1 °F 39.2 °F 93% 30.09 in 10.0 mi NNE 5.8 mph - N/A   Overcast
8:34 AM 41.0 °F 37.1 °F 39.2 °F 93% 30.10 in 10.0 mi NNE 5.8 mph - N/A   Overcast
8:55 AM 41.0 °F 37.1 °F 39.2 °F 93% 30.10 in 10.0 mi NNE 5.8 mph - N/A   Overcast
9:14 AM 41.0 °F 37.1 °F 39.2 °F 93% 30.11 in 10.0 mi NNE 5.8 mph - N/A   Overcast
9:35 AM 41.0 °F 35.8 °F 39.2 °F 93% 30.11 in 10.0 mi NNE 8.1 mph - N/A   Overcast
9:55 AM 41.0 °F 36.4 °F 39.2 °F 93% 30.13 in 10.0 mi NNE 6.9 mph - N/A   Overcast
10:35 AM 41.0 °F 35.8 °F 37.4 °F 87% 30.13 in 10.0 mi NE 8.1 mph - N/A   Overcast
10:55 AM 41.0 °F 35.2 °F 37.4 °F 87% 30.12 in 10.0 mi NE 9.2 mph - N/A   Overcast
11:14 AM 41.0 °F 35.2 °F 37.4 °F 87% 30.11 in 10.0 mi NE 9.2 mph - N/A   Overcast
11:35 AM 41.0 °F 35.2 °F 37.4 °F 87% 30.10 in 10.0 mi NE 9.2 mph - N/A   Overcast
11:55 AM 41.0 °F 35.8 °F 37.4 °F 87% 30.11 in 10.0 mi NE 8.1 mph - N/A   Overcast
12:14 PM 42.8 °F 38.0 °F 37.4 °F 81% 30.11 in 10.0 mi NE 8.1 mph - N/A   Overcast
12:35 PM 42.8 °F 37.0 °F 37.4 °F 81% 30.11 in 10.0 mi NE 10.4 mph - N/A   Overcast
12:55 PM 42.8 °F 38.0 °F 35.6 °F 76% 30.13 in 10.0 mi NE 8.1 mph - N/A   Scattered Clouds
1:35 PM 44.6 °F 38.4 °F 35.6 °F 71% 30.09 in 10.0 mi NE 12.7 mph - N/A   Scattered Clouds
2:14 PM 44.6 °F 39.7 °F 35.6 °F 71% 30.09 in 10.0 mi NE 9.2 mph 16.1 mph N/A   Clear
2:35 PM 44.6 °F 39.7 °F 33.8 °F 66% 30.10 in 10.0 mi ENE 9.2 mph - N/A   Clear
2:55 PM 46.4 °F 42.9 °F 33.8 °F 62% 30.09 in 10.0 mi East 6.9 mph - N/A   Clear
3:14 PM 46.4 °F 41.1 °F 33.8 °F 62% 30.08 in 10.0 mi East 11.5 mph - N/A   Clear
3:35 PM 46.4 °F 43.5 °F 35.6 °F 66% 30.07 in 10.0 mi ENE 5.8 mph - N/A   Clear
3:55 PM 46.4 °F 43.5 °F 35.6 °F 66% 30.07 in 10.0 mi NE 5.8 mph - N/A   Clear
4:15 PM 46.4 °F 43.5 °F 33.8 °F 62% 30.08 in 10.0 mi NE 5.8 mph - N/A   Clear
4:35 PM 46.4 °F 42.4 °F 33.8 °F 62% 30.08 in 10.0 mi NNE 8.1 mph - N/A   Clear
4:55 PM 46.4 °F 45.2 °F 33.8 °F 62% 30.09 in 10.0 mi NNE 3.5 mph - N/A   Clear
5:15 PM 46.4 °F 42.9 °F 33.8 °F 62% 30.08 in 10.0 mi NE 6.9 mph - N/A   Clear
5:35 PM 46.4 °F 42.4 °F 32.0 °F 57% 30.09 in 10.0 mi NE 8.1 mph - N/A   Clear
5:55 PM 46.4 °F 44.3 °F 32.0 °F 57% 30.10 in 10.0 mi NE 4.6 mph - N/A   Clear
6:15 PM 44.6 °F 43.1 °F 33.8 °F 66% 30.10 in 10.0 mi North 3.5 mph - N/A   Clear
6:35 PM 42.8 °F 39.3 °F 32.0 °F 66% 30.10 in 10.0 mi NNE 5.8 mph - N/A   Clear
6:55 PM 42.8 °F 41.1 °F 32.0 °F 66% 30.11 in 10.0 mi NE 3.5 mph - N/A   Clear
7:15 PM 41.0 °F - 32.0 °F 70% 30.11 in 10.0 mi Calm Calm - N/A   Clear
7:35 PM 35.6 °F - 33.8 °F 93% 30.12 in 10.0 mi Calm Calm - N/A   Clear
7:55 PM 35.6 °F 31.7 °F 32.0 °F 87% 30.14 in 10.0 mi NNW 4.6 mph - N/A   Clear
8:15 PM 39.2 °F 35.9 °F 32.0 °F 75% 30.15 in 10.0 mi North 4.6 mph - N/A   Clear
8:35 PM 37.4 °F 34.9 °F 33.8 °F 87% 30.16 in 10.0 mi NW 3.5 mph - N/A   Clear
8:54 PM 37.4 °F 33.8 °F 33.8 °F 87% 30.16 in 10.0 mi NNW 4.6 mph - N/A   Clear
9:15 PM 35.6 °F 31.7 °F 33.8 °F 93% 30.16 in 10.0 mi NNW 4.6 mph - N/A   Clear
9:35 PM 35.6 °F 30.7 °F 33.8 °F 93% 30.17 in 10.0 mi NNW 5.8 mph - N/A   Clear
9:54 PM 35.6 °F 31.7 °F 33.8 °F 93% 30.18 in 10.0 mi North 4.6 mph - N/A   Clear
10:15 PM 35.6 °F 32.8 °F 33.8 °F 93% 30.19 in 10.0 mi North 3.5 mph - N/A   Clear
10:35 PM 35.6 °F 32.8 °F 33.8 °F 93% 30.19 in 10.0 mi North 3.5 mph - N/A   Clear
10:54 PM 32.0 °F 28.7 °F 32.0 °F 100% 30.20 in 10.0 mi North 3.5 mph - N/A   Clear
11:15 PM 32.0 °F - 32.0 °F 100% 30.21 in 10.0 mi Calm Calm - N/A   Clear
11:35 PM 32.0 °F - 32.0 °F 100% 30.20 in 10.0 mi Calm Calm - N/A   Clear
11:54 PM 32.0 °F - 32.0 °F 100% 30.21 in 10.0 mi Calm Calm - N/A   Clear